Wetterdaten: Samstag, 08.05.2010
Datum Zeit Temp. A. Feuchte A. Luftdruck Regen Wind Richtung Richtung Sonnenschein UV Solar Windben
08.05.2010 00:00 6,7 C 91 % 1007,8 hPa 0,0 mm 0,0 km/h (0 Bft) N 0 0 min 0 UV-I 0 W/m 0,0 km/h (0 Bft)
08.05.2010 00:10 6,7 C 91 % 1007,9 hPa 0,0 mm 0,0 km/h (0 Bft) N 0 0 min 0 UV-I 0 W/m 0,0 km/h (0 Bft)
08.05.2010 00:20 6,7 C 91 % 1007,9 hPa 0,0 mm 0,0 km/h (0 Bft) N 0 0 min 0 UV-I 0 W/m 0,0 km/h (0 Bft)
08.05.2010 00:30 6,6 C 91 % 1007,9 hPa 0,0 mm 0,0 km/h (0 Bft) N 0 0 min 0 UV-I 0 W/m 0,0 km/h (0 Bft)
08.05.2010 00:40 6,6 C 91 % 1008,0 hPa 0,0 mm 0,0 km/h (0 Bft) N 0 0 min 0 UV-I 0 W/m 0,0 km/h (0 Bft)
08.05.2010 00:50 6,6 C 92 % 1008,0 hPa 0,0 mm 0,0 km/h (0 Bft) N 0 0 min 0 UV-I 0 W/m 0,0 km/h (0 Bft)
08.05.2010 01:00 6,7 C 92 % 1007,9 hPa 0,0 mm 0,0 km/h (0 Bft) N 0 0 min 0 UV-I 0 W/m 0,0 km/h (0 Bft)
08.05.2010 01:10 6,7 C 92 % 1007,9 hPa 0,0 mm 0,0 km/h (0 Bft) N 0 0 min 0 UV-I 0 W/m 0,0 km/h (0 Bft)
08.05.2010 01:20 6,7 C 92 % 1007,9 hPa 0,0 mm 0,0 km/h (0 Bft) N 0 0 min 0 UV-I 0 W/m 0,0 km/h (0 Bft)
08.05.2010 01:30 6,7 C 92 % 1007,9 hPa 0,0 mm 0,0 km/h (0 Bft) N 0 0 min 0 UV-I 0 W/m 0,0 km/h (0 Bft)
08.05.2010 01:40 6,7 C 92 % 1007,8 hPa 0,0 mm 0,0 km/h (0 Bft) N 0 0 min 0 UV-I 0 W/m 0,0 km/h (0 Bft)
08.05.2010 01:50 6,7 C 92 % 1007,9 hPa 0,0 mm 0,0 km/h (0 Bft) N 0 0 min 0 UV-I 0 W/m 0,0 km/h (0 Bft)
08.05.2010 02:00 6,7 C 92 % 1007,8 hPa 0,0 mm 0,0 km/h (0 Bft) N 0 0 min 0 UV-I 0 W/m 0,0 km/h (0 Bft)
08.05.2010 02:10 6,7 C 92 % 1007,8 hPa 0,0 mm 0,0 km/h (0 Bft) N 0 0 min 0 UV-I 0 W/m 0,0 km/h (0 Bft)
08.05.2010 02:20 6,7 C 92 % 1007,8 hPa 0,0 mm 0,0 km/h (0 Bft) N 0 0 min 0 UV-I 0 W/m 0,0 km/h (0 Bft)
08.05.2010 02:30 6,7 C 92 % 1007,8 hPa 0,0 mm 0,0 km/h (0 Bft) W-SW 247 0 min 0 UV-I 0 W/m 1,6 km/h (1 Bft)
08.05.2010 02:40 6,7 C 92 % 1007,8 hPa 0,0 mm 0,0 km/h (0 Bft) N 0 0 min 0 UV-I 0 W/m 0,0 km/h (0 Bft)
08.05.2010 02:50 6,7 C 92 % 1007,9 hPa 0,0 mm 0,0 km/h (0 Bft) N 0 0 min 0 UV-I 0 W/m 0,0 km/h (0 Bft)
08.05.2010 03:00 6,7 C 92 % 1007,9 hPa 0,0 mm 0,0 km/h (0 Bft) N 0 0 min 0 UV-I 0 W/m 0,0 km/h (0 Bft)
08.05.2010 03:10 6,7 C 92 % 1007,9 hPa 0,0 mm 0,0 km/h (0 Bft) N 0 0 min 0 UV-I 0 W/m 0,0 km/h (0 Bft)
08.05.2010 03:20 6,7 C 92 % 1007,8 hPa 0,0 mm 0,0 km/h (0 Bft) N 0 0 min 0 UV-I 0 W/m 0,0 km/h (0 Bft)
08.05.2010 03:30 6,7 C 92 % 1007,8 hPa 0,0 mm 0,0 km/h (0 Bft) N 0 0 min 0 UV-I 0 W/m 0,0 km/h (0 Bft)
08.05.2010 03:40 6,7 C 92 % 1007,8 hPa 0,0 mm 0,0 km/h (0 Bft) N 0 0 min 0 UV-I 0 W/m 0,0 km/h (0 Bft)
08.05.2010 03:50 6,6 C 92 % 1007,8 hPa 0,0 mm 0,0 km/h (0 Bft) N 0 0 min 0 UV-I 0 W/m 0,0 km/h (0 Bft)
08.05.2010 04:00 6,6 C 92 % 1007,8 hPa 0,0 mm 0,0 km/h (0 Bft) N 0 0 min 0 UV-I 0 W/m 0,0 km/h (0 Bft)
08.05.2010 04:10 6,6 C 92 % 1007,8 hPa 0,0 mm 0,0 km/h (0 Bft) N 0 0 min 0 UV-I 0 W/m 0,0 km/h (0 Bft)
08.05.2010 04:20 6,6 C 92 % 1007,8 hPa 0,0 mm 0,0 km/h (0 Bft) N 0 0 min 0 UV-I 0 W/m 0,0 km/h (0 Bft)
08.05.2010 04:30 6,6 C 92 % 1007,9 hPa 0,0 mm 0,0 km/h (0 Bft) N 0 0 min 0 UV-I 0 W/m 0,0 km/h (0 Bft)
08.05.2010 04:40 6,5 C 92 % 1007,8 hPa 0,0 mm 0,0 km/h (0 Bft) N 0 0 min 0 UV-I 0 W/m 0,0 km/h (0 Bft)
08.05.2010 04:50 6,5 C 92 % 1007,8 hPa 0,0 mm 0,0 km/h (0 Bft) N 0 0 min 0 UV-I 0 W/m 0,0 km/h (0 Bft)
08.05.2010 05:00 6,5 C 92 % 1007,8 hPa 0,0 mm 0,0 km/h (0 Bft) N 0 0 min 0 UV-I 0 W/m 0,0 km/h (0 Bft)
08.05.2010 05:10 6,5 C 92 % 1007,8 hPa 0,0 mm 0,0 km/h (0 Bft) N 0 0 min 0 UV-I 0 W/m 0,0 km/h (0 Bft)
08.05.2010 05:20 6,5 C 92 % 1007,8 hPa 0,0 mm 0,0 km/h (0 Bft) N 0 0 min 0 UV-I 0 W/m 0,0 km/h (0 Bft)
08.05.2010 05:30 6,5 C 92 % 1007,8 hPa 0,0 mm 0,0 km/h (0 Bft) N 0 0 min 0 UV-I 0 W/m 0,0 km/h (0 Bft)
08.05.2010 05:40 6,4 C 92 % 1007,7 hPa 0,0 mm 0,0 km/h (0 Bft) N 0 0 min 0 UV-I 0 W/m 0,0 km/h (0 Bft)
08.05.2010 05:50 6,4 C 92 % 1007,8 hPa 0,0 mm 0,0 km/h (0 Bft) N 0 0 min 0 UV-I 0 W/m 0,0 km/h (0 Bft)
08.05.2010 06:00 6,4 C 92 % 1007,8 hPa 0,0 mm 0,0 km/h (0 Bft) N 0 0 min 0 UV-I 0 W/m 0,0 km/h (0 Bft)
08.05.2010 06:10 6,4 C 92 % 1007,8 hPa 0,0 mm 0,0 km/h (0 Bft) N 0 0 min 0 UV-I 5 W/m 0,0 km/h (0 Bft)
08.05.2010 06:20 6,4 C 92 % 1007,9 hPa 0,0 mm 0,0 km/h (0 Bft) N 0 0 min 0 UV-I 7 W/m 0,0 km/h (0 Bft)
08.05.2010 06:30 6,4 C 91 % 1007,9 hPa 0,0 mm 0,0 km/h (0 Bft) N 0 0 min 0 UV-I 12 W/m 0,0 km/h (0 Bft)
08.05.2010 06:40 6,4 C 91 % 1007,9 hPa 0,0 mm 0,0 km/h (0 Bft) W-SW 247 0 min 0 UV-I 21 W/m 1,6 km/h (1 Bft)
08.05.2010 06:50 6,5 C 91 % 1008,0 hPa 0,0 mm 0,0 km/h (0 Bft) W-SW 247 0 min 0 UV-I 26 W/m 1,6 km/h (1 Bft)
08.05.2010 07:00 6,5 C 91 % 1008,1 hPa 0,0 mm 0,0 km/h (0 Bft) W-SW 247 0 min 0 UV-I 32 W/m 1,6 km/h (1 Bft)
08.05.2010 07:10 6,6 C 91 % 1008,2 hPa 0,0 mm 0,0 km/h (0 Bft) W-SW 247 0 min 0 UV-I 35 W/m 3,2 km/h (1 Bft)
08.05.2010 07:20 6,7 C 90 % 1008,4 hPa 0,0 mm 0,0 km/h (0 Bft) W-SW 247 0 min 0 UV-I 74 W/m 1,6 km/h (1 Bft)
08.05.2010 07:30 6,8 C 89 % 1008,4 hPa 0,0 mm 0,0 km/h (0 Bft) W-SW 247 0 min 0 UV-I 97 W/m 1,6 km/h (1 Bft)
08.05.2010 07:40 6,9 C 89 % 1008,4 hPa 0,0 mm 0,0 km/h (0 Bft) W-SW 247 0 min 0 UV-I 120 W/m 1,6 km/h (1 Bft)
08.05.2010 07:50 7,2 C 88 % 1008,5 hPa 0,0 mm 0,0 km/h (0 Bft) W-SW 247 0 min 1 UV-I 120 W/m 1,6 km/h (1 Bft)
08.05.2010 08:00 7,3 C 86 % 1008,5 hPa 0,0 mm 0,0 km/h (0 Bft) W-SW 252 0 min 1 UV-I 132 W/m 0,0 km/h (0 Bft)
08.05.2010 08:10 7,6 C 85 % 1008,4 hPa 0,0 mm 0,1 km/h (0 Bft) W-SW 252 0 min 1 UV-I 132 W/m 3,2 km/h (1 Bft)
08.05.2010 08:20 7,6 C 84 % 1008,5 hPa 0,0 mm 0,4 km/h (0 Bft) W-SW 252 0 min 0 UV-I 90 W/m 3,2 km/h (1 Bft)
08.05.2010 08:30 7,6 C 84 % 1008,6 hPa 0,0 mm 0,5 km/h (0 Bft) W-SW 252 0 min 0 UV-I 89 W/m 4,8 km/h (1 Bft)
08.05.2010 08:40 7,6 C 84 % 1008,6 hPa 0,0 mm 0,4 km/h (0 Bft) W-SW 250 0 min 0 UV-I 82 W/m 4,8 km/h (1 Bft)
08.05.2010 08:50 7,6 C 84 % 1008,6 hPa 0,0 mm 0,1 km/h (0 Bft) W-SW 250 0 min 0 UV-I 86 W/m 1,6 km/h (1 Bft)
08.05.2010 09:00 7,7 C 82 % 1008,7 hPa 0,0 mm 0,2 km/h (0 Bft) W-SW 250 0 min 1 UV-I 100 W/m 1,6 km/h (1 Bft)
08.05.2010 09:10 7,7 C 83 % 1008,7 hPa 0,0 mm 0,0 km/h (0 Bft) W-SW 250 0 min 1 UV-I 104 W/m 1,6 km/h (1 Bft)
08.05.2010 09:20 7,8 C 83 % 1008,9 hPa 0,0 mm 0,1 km/h (0 Bft) SW 226 0 min 1 UV-I 104 W/m 3,2 km/h (1 Bft)
08.05.2010 09:30 7,9 C 83 % 1008,9 hPa 0,0 mm 0,0 km/h (0 Bft) SW 227 0 min 1 UV-I 112 W/m 1,6 km/h (1 Bft)
08.05.2010 09:40 8,1 C 82 % 1009,0 hPa 0,0 mm 0,1 km/h (0 Bft) SW 226 0 min 1 UV-I 121 W/m 1,6 km/h (1 Bft)
08.05.2010 09:50 8,2 C 82 % 1009,0 hPa 0,0 mm 0,2 km/h (0 Bft) SW 220 0 min 1 UV-I 101 W/m 3,2 km/h (1 Bft)
08.05.2010 10:00 8,3 C 83 % 1009,0 hPa 0,0 mm 0,2 km/h (0 Bft) SW 214 0 min 1 UV-I 120 W/m 3,2 km/h (1 Bft)
08.05.2010 10:10 8,3 C 83 % 1009,1 hPa 0,0 mm 0,7 km/h (0 Bft) S-SW 211 0 min 1 UV-I 125 W/m 4,8 km/h (1 Bft)
08.05.2010 10:20 8,4 C 83 % 1009,1 hPa 0,0 mm 0,3 km/h (0 Bft) S-SW 209 0 min 1 UV-I 125 W/m 4,8 km/h (1 Bft)
08.05.2010 10:30 8,6 C 82 % 1009,1 hPa 0,0 mm 0,3 km/h (0 Bft) S-SW 209 0 min 1 UV-I 174 W/m 3,2 km/h (1 Bft)
08.05.2010 10:40 8,8 C 82 % 1009,1 hPa 0,0 mm 0,8 km/h (0 Bft) S-SW 200 0 min 1 UV-I 165 W/m 4,8 km/h (1 Bft)
08.05.2010 10:50 8,8 C 80 % 1009,2 hPa 0,0 mm 0,5 km/h (0 Bft) S-SW 205 0 min 1 UV-I 179 W/m 4,8 km/h (1 Bft)
08.05.2010 11:00 8,9 C 80 % 1009,2 hPa 0,0 mm 0,5 km/h (0 Bft) S-SW 203 0 min 1 UV-I 190 W/m 4,8 km/h (1 Bft)
08.05.2010 11:10 8,9 C 80 % 1009,1 hPa 0,0 mm 0,7 km/h (0 Bft) W-SW 240 0 min 2 UV-I 232 W/m 6,4 km/h (2 Bft)
08.05.2010 11:20 9,2 C 80 % 1009,2 hPa 0,0 mm 0,7 km/h (0 Bft) W-SW 237 0 min 2 UV-I 205 W/m 4,8 km/h (1 Bft)
08.05.2010 11:30 9,1 C 78 % 1009,2 hPa 0,0 mm 1,1 km/h (1 Bft) W-SW 245 0 min 2 UV-I 223 W/m 6,4 km/h (2 Bft)
08.05.2010 11:40 9,4 C 78 % 1009,2 hPa 0,0 mm 0,4 km/h (0 Bft) W-SW 246 0 min 2 UV-I 233 W/m 3,2 km/h (1 Bft)
08.05.2010 11:50 9,2 C 78 % 1009,2 hPa 0,0 mm 1,0 km/h (0 Bft) W-SW 249 0 min 2 UV-I 242 W/m 6,4 km/h (2 Bft)
08.05.2010 12:00 9,2 C 78 % 1009,3 hPa 0,0 mm 3,2 km/h (1 Bft) W-SW 258 0 min 2 UV-I 238 W/m 9,7 km/h (2 Bft)
08.05.2010 12:10 9,5 C 79 % 1009,2 hPa 0,0 mm 1,2 km/h (1 Bft) W-SW 254 0 min 2 UV-I 252 W/m 4,8 km/h (1 Bft)
08.05.2010 12:20 9,7 C 78 % 1009,2 hPa 0,0 mm 0,3 km/h (0 Bft) W-SW 255 0 min 2 UV-I 293 W/m 4,8 km/h (1 Bft)
08.05.2010 12:30 10,1 C 77 % 1009,2 hPa 0,0 mm 0,8 km/h (0 Bft) W-SW 257 0 min 2 UV-I 297 W/m 8,0 km/h (2 Bft)
08.05.2010 12:40 10,1 C 75 % 1009,2 hPa 0,0 mm 0,8 km/h (0 Bft) W-SW 255 0 min 2 UV-I 313 W/m 6,4 km/h (2 Bft)
08.05.2010 12:50 10,1 C 76 % 1009,3 hPa 0,0 mm 0,5 km/h (0 Bft) W-SW 254 0 min 2 UV-I 317 W/m 4,8 km/h (1 Bft)
08.05.2010 13:00 10,4 C 75 % 1009,3 hPa 0,0 mm 1,0 km/h (0 Bft) W-SW 244 0 min 2 UV-I 303 W/m 4,8 km/h (1 Bft)
08.05.2010 13:10 10,4 C 75 % 1009,3 hPa 0,0 mm 0,7 km/h (0 Bft) SW 227 0 min 2 UV-I 327 W/m 8,0 km/h (2 Bft)
08.05.2010 13:20 10,5 C 72 % 1009,3 hPa 0,0 mm 1,9 km/h (1 Bft) W 269 0 min 3 UV-I 377 W/m 12,9 km/h (3 Bft)
08.05.2010 13:30 10,9 C 73 % 1009,3 hPa 0,0 mm 0,7 km/h (0 Bft) W 269 0 min 3 UV-I 379 W/m 3,2 km/h (1 Bft)
08.05.2010 13:40 10,7 C 71 % 1009,3 hPa 0,0 mm 1,6 km/h (1 Bft) W 269 0 min 3 UV-I 382 W/m 6,4 km/h (2 Bft)
08.05.2010 13:50 10,8 C 71 % 1009,3 hPa 0,0 mm 1,3 km/h (1 Bft) W 263 0 min 2 UV-I 334 W/m 8,0 km/h (2 Bft)
08.05.2010 14:00 11,1 C 72 % 1009,3 hPa 0,0 mm 1,1 km/h (1 Bft) W 264 0 min 2 UV-I 325 W/m 8,0 km/h (2 Bft)
08.05.2010 14:10 10,9 C 69 % 1009,4 hPa 0,0 mm 1,7 km/h (1 Bft) W 259 0 min 2 UV-I 309 W/m 6,4 km/h (2 Bft)
08.05.2010 14:20 10,9 C 70 % 1009,4 hPa 0,0 mm 2,5 km/h (1 Bft) W-SW 237 0 min 2 UV-I 307 W/m 8,0 km/h (2 Bft)
08.05.2010 14:30 11,2 C 70 % 1009,4 hPa 0,0 mm 1,6 km/h (1 Bft) W-SW 237 0 min 2 UV-I 315 W/m 6,4 km/h (2 Bft)
08.05.2010 14:40 11,2 C 70 % 1009,5 hPa 0,0 mm 1,5 km/h (1 Bft) W-SW 249 0 min 2 UV-I 299 W/m 8,0 km/h (2 Bft)
08.05.2010 14:50 11,4 C 70 % 1009,5 hPa 0,0 mm 1,3 km/h (1 Bft) W-SW 248 0 min 2 UV-I 290 W/m 8,0 km/h (2 Bft)
08.05.2010 15:00 11,3 C 66 % 1009,5 hPa 0,0 mm 2,4 km/h (1 Bft) W 266 0 min 2 UV-I 282 W/m 11,3 km/h (2 Bft)
08.05.2010 15:10 11,6 C 67 % 1009,5 hPa 0,0 mm 1,5 km/h (1 Bft) W-SW 253 0 min 2 UV-I 291 W/m 6,4 km/h (2 Bft)
08.05.2010 15:20 11,6 C 67 % 1009,5 hPa 0,0 mm 2,2 km/h (1 Bft) SW 236 0 min 2 UV-I 280 W/m 9,7 km/h (2 Bft)
08.05.2010 15:30 11,6 C 66 % 1009,5 hPa 0,0 mm 1,9 km/h (1 Bft) SW 229 0 min 2 UV-I 253 W/m 6,4 km/h (2 Bft)
08.05.2010 15:40 11,6 C 67 % 1009,4 hPa 0,0 mm 0,9 km/h (0 Bft) SW 229 0 min 2 UV-I 303 W/m 4,8 km/h (1 Bft)
08.05.2010 15:50 11,8 C 66 % 1009,5 hPa 0,0 mm 1,6 km/h (1 Bft) W-SW 238 0 min 2 UV-I 306 W/m 8,0 km/h (2 Bft)
08.05.2010 16:00 11,9 C 66 % 1009,5 hPa 0,0 mm 0,8 km/h (0 Bft) W-SW 238 0 min 2 UV-I 289 W/m 3,2 km/h (1 Bft)
08.05.2010 16:10 11,9 C 65 % 1009,4 hPa 0,0 mm 1,6 km/h (1 Bft) W-SW 247 0 min 2 UV-I 281 W/m 8,0 km/h (2 Bft)
08.05.2010 16:20 11,7 C 67 % 1009,4 hPa 0,0 mm 1,6 km/h (1 Bft) W 270 0 min 1 UV-I 211 W/m 14,5 km/h (3 Bft)
08.05.2010 16:30 11,7 C 67 % 1009,5 hPa 0,0 mm 0,0 km/h (0 Bft) W 270 0 min 1 UV-I 155 W/m 3,2 km/h (1 Bft)
08.05.2010 16:40 11,6 C 65 % 1009,5 hPa 0,0 mm 1,6 km/h (1 Bft) W 270 0 min 1 UV-I 139 W/m 6,4 km/h (2 Bft)
08.05.2010 16:50 11,4 C 65 % 1009,5 hPa 0,0 mm 1,6 km/h (1 Bft) W 270 0 min 1 UV-I 213 W/m 6,4 km/h (2 Bft)
08.05.2010 17:00 11,5 C 66 % 1009,5 hPa 0,0 mm 1,6 km/h (1 Bft) W 270 0 min 1 UV-I 202 W/m 6,4 km/h (2 Bft)
08.05.2010 17:10 11,6 C 66 % 1009,4 hPa 0,0 mm 1,6 km/h (1 Bft) W 270 0 min 1 UV-I 149 W/m 8,0 km/h (2 Bft)
08.05.2010 17:20 11,4 C 67 % 1009,5 hPa 0,0 mm 1,6 km/h (1 Bft) W 270 0 min 1 UV-I 139 W/m 6,4 km/h (2 Bft)
08.05.2010 17:30 11,3 C 66 % 1009,5 hPa 0,0 mm 0,0 km/h (0 Bft) W 270 0 min 1 UV-I 104 W/m 4,8 km/h (1 Bft)
08.05.2010 17:40 11,2 C 66 % 1009,4 hPa 0,0 mm 0,0 km/h (0 Bft) W 270 0 min 1 UV-I 125 W/m 4,8 km/h (1 Bft)
08.05.2010 17:50 11,3 C 68 % 1009,3 hPa 0,0 mm 0,0 km/h (0 Bft) W 270 0 min 1 UV-I 149 W/m 3,2 km/h (1 Bft)
08.05.2010 18:00 11,3 C 68 % 1009,3 hPa 0,0 mm 0,0 km/h (0 Bft) W 270 0 min 1 UV-I 213 W/m 3,2 km/h (1 Bft)
08.05.2010 18:10 11,6 C 67 % 1009,3 hPa 0,0 mm 0,0 km/h (0 Bft) W 270 0 min 1 UV-I 211 W/m 4,8 km/h (1 Bft)
08.05.2010 18:20 11,7 C 66 % 1009,3 hPa 0,0 mm 0,0 km/h (0 Bft) W 270 0 min 1 UV-I 162 W/m 3,2 km/h (1 Bft)
08.05.2010 18:30 11,6 C 67 % 1009,3 hPa 0,0 mm 0,0 km/h (0 Bft) W 270 0 min 1 UV-I 146 W/m 3,2 km/h (1 Bft)
08.05.2010 18:40 11,5 C 66 % 1009,2 hPa 0,0 mm 0,0 km/h (0 Bft) W 270 0 min 1 UV-I 130 W/m 1,6 km/h (1 Bft)
08.05.2010 18:50 11,4 C 68 % 1009,2 hPa 0,0 mm 0,0 km/h (0 Bft) W 270 0 min 1 UV-I 116 W/m 1,6 km/h (1 Bft)
08.05.2010 19:00 11,4 C 66 % 1009,2 hPa 0,0 mm 0,0 km/h (0 Bft) W 270 0 min 0 UV-I 102 W/m 1,6 km/h (1 Bft)
08.05.2010 19:10 11,3 C 68 % 1009,1 hPa 0,0 mm 0,0 km/h (0 Bft) W 270 0 min 0 UV-I 93 W/m 3,2 km/h (1 Bft)
08.05.2010 19:20 11,3 C 69 % 1009,1 hPa 0,0 mm 0,0 km/h (0 Bft) W 270 0 min 0 UV-I 74 W/m 1,6 km/h (1 Bft)
08.05.2010 19:30 11,2 C 70 % 1009,1 hPa 0,0 mm 0,0 km/h (0 Bft) W 270 0 min 0 UV-I 53 W/m 1,6 km/h (1 Bft)
08.05.2010 19:40 11,1 C 70 % 1009,0 hPa 0,0 mm 0,0 km/h (0 Bft) N 0 0 min 0 UV-I 42 W/m 0,0 km/h (0 Bft)
08.05.2010 19:50 11,1 C 71 % 1009,1 hPa 0,0 mm 0,0 km/h (0 Bft) N 0 0 min 0 UV-I 37 W/m 0,0 km/h (0 Bft)
08.05.2010 20:00 10,9 C 73 % 1009,2 hPa 0,0 mm 0,0 km/h (0 Bft) N 0 0 min 0 UV-I 28 W/m 0,0 km/h (0 Bft)
08.05.2010 20:10 10,8 C 75 % 1009,1 hPa 0,0 mm 0,0 km/h (0 Bft) W 270 0 min 0 UV-I 23 W/m 1,6 km/h (1 Bft)
08.05.2010 20:20 10,7 C 76 % 1009,1 hPa 0,0 mm 0,0 km/h (0 Bft) W 270 0 min 0 UV-I 18 W/m 1,6 km/h (1 Bft)
08.05.2010 20:30 10,7 C 77 % 1009,2 hPa 0,0 mm 0,0 km/h (0 Bft) W 270 0 min 0 UV-I 16 W/m 1,6 km/h (1 Bft)
08.05.2010 20:40 10,5 C 79 % 1009,2 hPa 0,0 mm 0,0 km/h (0 Bft) W 270 0 min 0 UV-I 9 W/m 1,6 km/h (1 Bft)
08.05.2010 20:50 10,3 C 79 % 1009,3 hPa 0,0 mm 0,0 km/h (0 Bft) W 270 0 min 0 UV-I 7 W/m 1,6 km/h (1 Bft)
08.05.2010 21:00 10,2 C 80 % 1009,4 hPa 0,0 mm 0,0 km/h (0 Bft) N 0 0 min 0 UV-I 0 W/m 0,0 km/h (0 Bft)
08.05.2010 21:10 10,1 C 81 % 1009,5 hPa 0,0 mm 0,0 km/h (0 Bft) N 0 0 min 0 UV-I 0 W/m 0,0 km/h (0 Bft)
08.05.2010 21:20 9,9 C 81 % 1009,7 hPa 0,0 mm 0,0 km/h (0 Bft) N 0 0 min 0 UV-I 0 W/m 0,0 km/h (0 Bft)
08.05.2010 21:30 9,8 C 82 % 1009,7 hPa 0,0 mm 0,0 km/h (0 Bft) N 0 0 min 0 UV-I 0 W/m 0,0 km/h (0 Bft)
08.05.2010 21:40 9,6 C 83 % 1009,8 hPa 0,0 mm 0,0 km/h (0 Bft) N 0 0 min 0 UV-I 0 W/m 0,0 km/h (0 Bft)
08.05.2010 21:50 9,6 C 83 % 1009,9 hPa 0,0 mm 0,0 km/h (0 Bft) N 0 0 min 0 UV-I 0 W/m 0,0 km/h (0 Bft)
08.05.2010 22:00 9,5 C 83 % 1009,9 hPa 0,0 mm 0,0 km/h (0 Bft) N 0 0 min 0 UV-I 0 W/m 0,0 km/h (0 Bft)
08.05.2010 22:10 9,4 C 82 % 1010,0 hPa 0,0 mm 0,0 km/h (0 Bft) N 0 0 min 0 UV-I 0 W/m 0,0 km/h (0 Bft)
08.05.2010 22:20 9,4 C 82 % 1010,0 hPa 0,0 mm 0,0 km/h (0 Bft) N 0 0 min 0 UV-I 0 W/m 0,0 km/h (0 Bft)
08.05.2010 22:30 9,3 C 83 % 1010,0 hPa 0,0 mm 0,0 km/h (0 Bft) N 0 0 min 0 UV-I 0 W/m 0,0 km/h (0 Bft)
08.05.2010 22:40 9,2 C 84 % 1010,0 hPa 0,0 mm 0,0 km/h (0 Bft) N 0 0 min 0 UV-I 0 W/m 0,0 km/h (0 Bft)
08.05.2010 22:50 9,1 C 84 % 1010,0 hPa 0,0 mm 0,0 km/h (0 Bft) N 0 0 min 0 UV-I 0 W/m 0,0 km/h (0 Bft)
08.05.2010 23:00 8,9 C 85 % 1010,0 hPa 0,0 mm 0,0 km/h (0 Bft) N 0 0 min 0 UV-I 0 W/m 0,0 km/h (0 Bft)
08.05.2010 23:10 8,8 C 85 % 1010,1 hPa 0,0 mm 0,0 km/h (0 Bft) N 0 0 min 0 UV-I 0 W/m 0,0 km/h (0 Bft)
08.05.2010 23:20 8,6 C 86 % 1010,1 hPa 0,0 mm 0,0 km/h (0 Bft) N 0 0 min 0 UV-I 0 W/m 0,0 km/h (0 Bft)
08.05.2010 23:30 8,4 C 87 % 1010,0 hPa 0,0 mm 0,0 km/h (0 Bft) N 0 0 min 0 UV-I 0 W/m 0,0 km/h (0 Bft)
08.05.2010 23:40 8,4 C 87 % 1010,0 hPa 0,0 mm 0,0 km/h (0 Bft) N 0 0 min 0 UV-I 0 W/m 0,0 km/h (0 Bft)
08.05.2010 23:50 8,2 C 88 % 1010,1 hPa 0,0 mm 0,0 km/h (0 Bft) W 270 0 min 0 UV-I 0 W/m 1,6 km/h (1 Bft)
_ Min-Zeit 05:00 16:10 05:40 - 00:00 - - - - - 00:00
Minimum _ 6,4 C 65 % 1007,7 hPa - 0,0 km/h (0 Bft) - - - - - 0,0 km/h (0 Bft)
_ Max-Zeit 16:10 00:50 23:10 00:00 12:00 - - 00:00 13:20 13:40 16:20
Maximum _ 12,1 C 92 % 1010,1 hPa 0,0 mm 3,2 km/h
W-SW (1 Bft)
- - 0 min 3 UV-I 382 W/m 14,5 km/h
W (3 Bft)
Durchschnitt _ 8,9 C 81 % 1008,9 hPa #0,0 mm 0,4 km/h (0 Bft) W - #0 min. 1 UV-I 169 W/m 2,7 km/h (1 Bft)